Regional Weather Roundup
Issued by NWS

Home | Current Version | Previous Version | Graphics & Text | Print | Product List | Glossary On
Versions: 1 2 3 4 5 6 7 8 9 10 11 12 13 14 15 16 17 18 19 20 21 22 23 24 25 26 27 28 29 30 31 32 33 34 35 36 37 38 39 40 41 42 43 44 45 46 47 48 49 50
000
ASUS45 KTFX 090310
RWRMT
MONTANA REGIONAL WEATHER ROUNDUP
NATIONAL WEATHER SERVICE GREAT FALLS MT
800 PM MST MON FEB 08 2016

NOTE: "FAIR" INDICATES FEW OR NO CLOUDS BELOW 12000 FEET WITH NO
SIGNIFICANT WEATHER AND/OR OBSTRUCTIONS TO VISIBILITY.

MTZ001>007-043-090400-
WEST OF THE DIVIDE

CITY           SKY/WX    TMP DP  RH WIND       PRES   REMARKS
KALISPELL      MOCLDY    32  28  85 CALM      30.51F
MISSOULA       CLEAR     34  26  72 CALM      30.53F
BUTTE          CLOUDY    32  27  81 NW3       30.50F
MULLAN PASS    CLEAR     37  29  72 SW6       30.51S
ANACONDA         N/A     34  28  80 N3        30.50R
DEER LODGE       N/A     34  30  86 E3        30.51R
HAMILTON         N/A     34  28  80 CALM      30.52S
LIBBY            N/A     34  27  75 SE3       30.54S
PLAINS           N/A     34  27  76 CALM      30.50S
THOMPSON FALLS   N/A     33  28  82 CALM      30.54S
$$

MTZ008-052>055-090400-
SOUTHWEST MONTANA

CITY           SKY/WX    TMP DP  RH WIND       PRES   REMARKS
BOZEMAN        CLOUDY    29  24  82 SE5       30.46F
DILLON         CLOUDY    38  29  70 S12       30.48F WCI  30
ENNIS          CLEAR     34  25  69 S22       30.53F WCI  22
TWIN BRIDGES     N/A     33  25  73 E6        30.42F WCI  27
$$

MTZ009-010-012-014-046-048-049-054-090400-
EAST SLOPES AND CENTRAL MONTANA

CITY           SKY/WX    TMP DP  RH WIND       PRES   REMARKS
CUT BANK       MOCLDY    44  30  57 W23G32    30.27F
GREAT FALLS    CLOUDY    41  28  60 SW13      30.34R
MALMSTROM AFB  CLOUDY    48  30  49 W13       30.33S
HELENA         CLOUDY    48  34  58 W12       30.41F
CHOTEAU          N/A     50  30  46 W17       30.31F
CONRAD           N/A     46  30  54 SE2       30.28S
$$

MTZ011-013-016-021-045-047-050-051-090400-
NORTH CENTRAL MONTANA

CITY           SKY/WX    TMP DP  RH WIND       PRES   REMARKS
HAVRE          CLOUDY    30  25  81 SW6       30.28R WCI  24
LEWISTOWN      CLEAR     37  28  70 W7        30.32S WCI  32
N BAR RANCH      N/A     37  27  65 NW7       30.31F
CHINOOK          N/A     34  27  75 CALM      30.28S
$$

MTZ017>020-022>027-061-062-090400-
NORTHEAST MONTANA

CITY           SKY/WX    TMP DP  RH WIND       PRES   REMARKS
GLASGOW        CLOUDY    30  20  66 S3        30.24F
JORDAN           N/A     32  28  85 W6        30.24F WCI  26
SIDNEY         CLOUDY    30  18  59 CALM      30.27F
WOLF POINT     CLOUDY    27  22  81 NE5       30.26F
PLENTYWOOD       N/A     32  19  59 CALM      30.24F
POPLAR           N/A     34  19  55 CALM      30.27F
SCOBEY           N/A     29  15  55 CALM      30.20F
$$

MTZ028>42-056>058-090400-
SOUTHCENTRAL AND SOUTHEAST MONTANA

CITY           SKY/WX    TMP DP  RH WIND       PRES   REMARKS
BAKER          PTCLDY    28  14  55 CALM      30.24F
BILLINGS       CLOUDY    47  27  45 W17       30.31S
LIVINGSTON     CLOUDY    47  27  45 W16       30.41F
MILES CITY     PTCLDY    34  25  69 NW6       30.25S WCI  29
EKALAKA          N/A     30  12  47 MISG      30.19F
FORSYTH          N/A     41  25  52 W5        30.26S
LAUREL           N/A     48  27  44 W5        30.28F
ROUNDUP          N/A     42  26  53 W3        30.19S
$$

REGIONAL REPORTS...DAKOTAS

CITY           SKY/WX    TMP DP  RH WIND       PRES   REMARKS
WILLISTON      CLOUDY    30  21  69 CALM      30.27F
MINOT          CLEAR     21  14  74 W10       30.27R WCI  10
DICKINSON      CLOUDY    29  16  58 N5        30.21F
BEACH          CLOUDY    30  16  55 N5        30.27S
CROSBY         CLOUDY    25  25 100 CALM      30.29F
TIOGA          CLOUDY    25  23  93 CALM      30.29F
WATFORD CITY   CLOUDY    28  19  69 CALM      30.27F
BISMARCK       MOCLDY    28  15  58 N10       30.26S WCI  19
GRAND FORKS    PTCLDY     9   2  73 NW18      30.26R WCI -10
FARGO          CLEAR      9   1  70 NW24G32   30.23R WCI -12
BUFFALO SD       N/A     33  12  41 NW5       30.17F
RAPID CITY     CLOUDY    36  17  46 N6        30.23S WCI  31
$$

REGIONAL REPORTS...WYOMING/IDAHO/WASHINGTON

CITY           SKY/WX    TMP DP  RH WIND       PRES   REMARKS
GILLETTE       CLOUDY    35  27  72 W10       30.27F WCI  27
SHERIDAN       CLEAR     45  27  49 NW8       30.28F
BUFFALO WY     CLOUDY    45  26  47 N5        30.31S
CODY           CLOUDY    30  16  55 CALM      30.36F
YELLOWSTONE LA   N/A     23  19  85 NW3       30.57R
IDAHO FALLS    FOG       16  13  88 N3        30.64F VSB 1/4
SALMON         CLOUDY    21  16  79 SE3       30.64S
BOISE          CLEAR     38  32  79 CALM      30.63F
SPOKANE        PTCLDY    39  31  72 CALM      30.51F
$$

REGIONAL REPORTS...ALBERTA

CITY           SKY/WX    TMP DP  RH WIND       PRES   REMARKS
EDMONTON       MOCLDY    37  25  60 SW5       30.20F
CALGARY        MOCLDY    50  23  34 VRB7      30.23S
LETHBRIDGE     CLEAR     48  30  49 W23G30    30.25R
MEDICINE HAT   PTCLDY    34  27  75 N5        30.25S
WATERTON GATE    N/A     45  28  53 SW29G45     N/A
CARDSTON         N/A     48  27  43 W17G24      N/A
$$

REGIONAL REPORTS...SASKATCHEWAN

CITY           SKY/WX    TMP DP  RH WIND       PRES   REMARKS
SWIFT CURRENT  PTCLDY    32  25  74 W7        30.21R WCI  26
REGINA         CLOUDY    27  21  80 SE7       30.24S WCI  19
SASKATOON      CLEAR     23  23 100 SW3       30.22F
CYPRESS HILLS    N/A     36  23  60 W5          N/A
VAL MARIE        N/A     27  25  93 W3          N/A
ROCKGLEN         N/A     25  18  74 SW7         N/A  WCI  17
$$




USA.gov is the U.S. government's official web portal to all federal, state and local government web resources and services.